Data supplied by UK-AIR on 31/3/2020
All Data GMT hour ending 
Status: R =Ratified P=Provisional,P*=As supplied
,,Stockton-on-Tees A1305 Roadside,,,,,,,,,,,,,,,,,,,,,,,
Date,time,"Nitric oxide",status,unit,"Nitrogen dioxide",status,unit,"Nitrogen oxides as nitrogen dioxide",status,unit,"PM<sub>2.5</sub> particulate matter (Hourly measured)",status,unit
 
01-01-2019,01:00,0.65415,R,ugm-3,3.02715,R,ugm-3,4.03016,R,ugm-3,6.000,R,ugm-3 (BAM)
01-01-2019,02:00,0.38548,R,ugm-3,2.53762,R,ugm-3,3.12868,R,ugm-3,3.000,R,ugm-3 (BAM)
01-01-2019,03:00,0.24531,R,ugm-3,1.32078,R,ugm-3,1.69691,R,ugm-3,2.000,R,ugm-3 (BAM)
01-01-2019,04:00,0.94618,R,ugm-3,2.52635,R,ugm-3,3.97713,R,ugm-3,3.000,R,ugm-3 (BAM)
01-01-2019,05:00,0.28035,R,ugm-3,1.47916,R,ugm-3,1.90903,R,ugm-3,2.000,R,ugm-3 (BAM)
01-01-2019,06:00,0.37380,R,ugm-3,1.54799,R,ugm-3,2.12114,R,ugm-3,1.000,R,ugm-3 (BAM)
01-01-2019,07:00,1.68210,R,ugm-3,5.85235,R,ugm-3,8.43152,R,ugm-3,10.000,R,ugm-3 (BAM)
01-01-2019,08:00,4.20524,R,ugm-3,7.81671,R,ugm-3,14.26466,R,ugm-3,10.000,R,ugm-3 (BAM)
01-01-2019,09:00,1.05131,R,ugm-3,7.93314,R,ugm-3,9.54512,R,ugm-3,7.000,R,ugm-3 (BAM)
01-01-2019,10:00,1.01627,R,ugm-3,5.54756,R,ugm-3,7.10581,R,ugm-3,5.000,R,ugm-3 (BAM)
01-01-2019,11:00,1.08635,R,ugm-3,4.48558,R,ugm-3,6.15130,R,ugm-3,3.000,R,ugm-3 (BAM)
01-01-2019,12:00,1.22653,R,ugm-3,5.59636,R,ugm-3,7.47701,R,ugm-3,6.000,R,ugm-3 (BAM)
01-01-2019,13:00,3.11889,R,ugm-3,7.62643,R,ugm-3,12.40866,R,ugm-3,7.000,R,ugm-3 (BAM)
01-01-2019,14:00,5.81725,R,ugm-3,11.44327,R,ugm-3,20.36293,R,ugm-3,10.000,R,ugm-3 (BAM)
01-01-2019,15:00,11.49433,R,ugm-3,14.72297,R,ugm-3,32.34736,R,ugm-3,8.000,R,ugm-3 (BAM)
01-01-2019,16:00,7.77970,R,ugm-3,17.28998,R,ugm-3,29.21868,R,ugm-3,9.000,R,ugm-3 (BAM)
01-01-2019,17:00,6.23777,R,ugm-3,11.01059,R,ugm-3,20.57504,R,ugm-3,7.000,R,ugm-3 (BAM)
01-01-2019,18:00,6.27282,R,ugm-3,15.46427,R,ugm-3,25.08246,R,ugm-3,6.000,R,ugm-3 (BAM)
01-01-2019,19:00,4.10011,R,ugm-3,12.22019,R,ugm-3,18.50693,R,ugm-3,7.000,R,ugm-3 (BAM)
01-01-2019,20:00,2.48810,R,ugm-3,11.61625,R,ugm-3,15.43128,R,ugm-3,8.000,R,ugm-3 (BAM)
01-01-2019,21:00,3.25906,R,ugm-3,10.64624,R,ugm-3,15.64340,R,ugm-3,9.000,R,ugm-3 (BAM)
01-01-2019,22:00,6.37795,R,ugm-3,13.92434,R,ugm-3,23.70372,R,ugm-3,9.000,R,ugm-3 (BAM)
01-01-2019,23:00,4.69585,R,ugm-3,11.09461,R,ugm-3,18.29482,R,ugm-3,8.000,R,ugm-3 (BAM)
01-01-2019,24:00,5.60699,R,ugm-3,8.00065,R,ugm-3,16.59791,R,ugm-3,8.000,R,ugm-3 (BAM)
02-01-2019,01:00,,,,,,,,,,7.000,R,ugm-3 (BAM)
02-01-2019,02:00,0.98244,R,ugm-3,3.58829,R,ugm-3,5.09468,R,ugm-3,8.000,R,ugm-3 (BAM)
02-01-2019,03:00,0.31578,R,ugm-3,2.22235,R,ugm-3,2.70655,R,ugm-3,8.000,R,ugm-3 (BAM)
02-01-2019,04:00,0.52631,R,ugm-3,3.17323,R,ugm-3,3.98022,R,ugm-3,6.000,R,ugm-3 (BAM)
02-01-2019,05:00,0.45613,R,ugm-3,3.28083,R,ugm-3,3.98022,R,ugm-3,7.000,R,ugm-3 (BAM)
02-01-2019,06:00,0.73683,R,ugm-3,4.81400,R,ugm-3,5.94379,R,ugm-3,6.000,R,ugm-3 (BAM)
02-01-2019,07:00,1.78944,R,ugm-3,6.49034,R,ugm-3,9.23411,R,ugm-3,7.000,R,ugm-3 (BAM)
02-01-2019,08:00,3.26310,R,ugm-3,19.78014,R,ugm-3,24.78349,R,ugm-3,8.000,R,ugm-3 (BAM)
02-01-2019,09:00,4.42097,R,ugm-3,28.24719,R,ugm-3,35.02592,R,ugm-3,9.000,R,ugm-3 (BAM)
02-01-2019,10:00,6.42094,R,ugm-3,26.08280,R,ugm-3,35.92810,R,ugm-3,8.000,R,ugm-3 (BAM)
02-01-2019,11:00,14.06992,R,ugm-3,33.61878,R,ugm-3,55.19235,R,ugm-3,9.000,R,ugm-3 (BAM)
02-01-2019,12:00,12.38574,R,ugm-3,26.59556,R,ugm-3,45.58676,R,ugm-3,8.000,R,ugm-3 (BAM)
02-01-2019,13:00,14.49096,R,ugm-3,35.67974,R,ugm-3,57.89890,R,ugm-3,7.000,R,ugm-3 (BAM)
02-01-2019,14:00,36.80634,R,ugm-3,46.09481,R,ugm-3,102.53041,R,ugm-3,8.000,R,ugm-3 (BAM)
02-01-2019,15:00,33.47307,R,ugm-3,51.20575,R,ugm-3,102.53041,R,ugm-3,6.000,R,ugm-3 (BAM)
02-01-2019,16:00,38.87648,R,ugm-3,59.47835,R,ugm-3,119.08811,R,ugm-3,10.000,R,ugm-3 (BAM)
02-01-2019,17:00,43.40271,R,ugm-3,52.37901,R,ugm-3,118.92890,R,ugm-3,12.000,R,ugm-3 (BAM)
02-01-2019,18:00,13.01730,R,ugm-3,35.17969,R,ugm-3,55.13928,R,ugm-3,10.000,R,ugm-3 (BAM)
02-01-2019,19:00,7.01742,R,ugm-3,32.17340,R,ugm-3,42.93328,R,ugm-3,15.000,R,ugm-3 (BAM)
02-01-2019,20:00,3.89467,R,ugm-3,35.74094,R,ugm-3,41.71268,R,ugm-3,14.000,R,ugm-3 (BAM)
02-01-2019,21:00,3.29819,R,ugm-3,35.64721,R,ugm-3,40.70436,R,ugm-3,13.000,R,ugm-3 (BAM)
02-01-2019,22:00,2.45610,R,ugm-3,28.12885,R,ugm-3,31.89481,R,ugm-3,16.000,R,ugm-3 (BAM)
02-01-2019,23:00,0.77192,R,ugm-3,9.16498,R,ugm-3,10.34857,R,ugm-3,8.000,R,ugm-3 (BAM)
02-01-2019,24:00,0.45613,R,ugm-3,5.29747,R,ugm-3,5.99686,R,ugm-3,7.000,R,ugm-3 (BAM)
03-01-2019,01:00,0.32788,R,ugm-3,3.39204,R,ugm-3,3.89478,R,ugm-3,8.000,R,ugm-3 (BAM)
03-01-2019,02:00,0.49183,R,ugm-3,7.05315,R,ugm-3,7.80727,R,ugm-3,8.000,R,ugm-3 (BAM)
03-01-2019,03:00,0.73774,R,ugm-3,6.94164,R,ugm-3,8.07282,R,ugm-3,7.000,R,ugm-3 (BAM)
03-01-2019,04:00,0.35131,R,ugm-3,6.04707,R,ugm-3,6.58572,R,ugm-3,10.000,R,ugm-3 (BAM)
03-01-2019,05:00,0.42157,R,ugm-3,4.13357,R,ugm-3,4.77996,R,ugm-3,8.000,R,ugm-3 (BAM)
03-01-2019,06:00,0.70261,R,ugm-3,4.76486,R,ugm-3,5.84218,R,ugm-3,6.000,R,ugm-3 (BAM)
03-01-2019,07:00,0.80800,R,ugm-3,8.58656,R,ugm-3,9.82548,R,ugm-3,7.000,R,ugm-3 (BAM)
03-01-2019,08:00,2.31861,R,ugm-3,25.70883,R,ugm-3,29.26399,R,ugm-3,8.000,R,ugm-3 (BAM)
03-01-2019,09:00,2.95096,R,ugm-3,24.63302,R,ugm-3,29.15776,R,ugm-3,7.000,R,ugm-3 (BAM)
03-01-2019,10:00,2.56453,R,ugm-3,24.26955,R,ugm-3,28.20177,R,ugm-3,8.000,R,ugm-3 (BAM)
03-01-2019,11:00,16.47619,R,ugm-3,44.41807,R,ugm-3,69.68121,R,ugm-3,10.000,R,ugm-3 (BAM)
03-01-2019,12:00,3.47792,R,ugm-3,26.69301,R,ugm-3,32.02574,R,ugm-3,10.000,R,ugm-3 (BAM)
03-01-2019,13:00,11.76871,R,ugm-3,35.91535,R,ugm-3,53.96045,R,ugm-3,12.000,R,ugm-3 (BAM)
03-01-2019,14:00,2.77531,R,ugm-3,20.54728,R,ugm-3,24.80269,R,ugm-3,8.000,R,ugm-3 (BAM)
03-01-2019,15:00,2.21322,R,ugm-3,16.41673,R,ugm-3,19.81028,R,ugm-3,6.000,R,ugm-3 (BAM)
03-01-2019,16:00,2.21322,R,ugm-3,19.33781,R,ugm-3,22.73137,R,ugm-3,8.000,R,ugm-3 (BAM)
03-01-2019,17:00,3.02122,R,ugm-3,32.75744,R,ugm-3,37.38992,R,ugm-3,8.000,R,ugm-3 (BAM)
03-01-2019,18:00,6.85044,R,ugm-3,48.39588,R,ugm-3,58.89974,R,ugm-3,16.000,R,ugm-3 (BAM)
03-01-2019,19:00,4.07514,R,ugm-3,40.54206,R,ugm-3,46.79051,R,ugm-3,15.000,R,ugm-3 (BAM)
03-01-2019,20:00,1.93218,R,ugm-3,24.01760,R,ugm-3,26.98023,R,ugm-3,18.000,R,ugm-3 (BAM)
03-01-2019,21:00,2.88070,R,ugm-3,31.96381,R,ugm-3,36.38082,R,ugm-3,19.000,R,ugm-3 (BAM)
03-01-2019,22:00,1.72139,R,ugm-3,27.52743,R,ugm-3,30.16687,R,ugm-3,17.000,R,ugm-3 (BAM)
03-01-2019,23:00,2.14296,R,ugm-3,26.50927,R,ugm-3,29.79509,R,ugm-3,14.000,R,ugm-3 (BAM)
03-01-2019,24:00,0.80800,R,ugm-3,24.25421,R,ugm-3,25.49313,R,ugm-3,19.000,R,ugm-3 (BAM)
04-01-2019,01:00,0.79727,R,ugm-3,18.83347,R,ugm-3,20.05594,R,ugm-3,18.000,R,ugm-3 (BAM)
04-01-2019,02:00,0.77383,R,ugm-3,19.06432,R,ugm-3,20.25083,R,ugm-3,23.000,R,ugm-3 (BAM)
04-01-2019,03:00,0.84417,R,ugm-3,19.96634,R,ugm-3,21.26072,R,ugm-3,23.000,R,ugm-3 (BAM)
04-01-2019,04:00,0.84417,R,ugm-3,17.99972,R,ugm-3,19.29410,R,ugm-3,23.000,R,ugm-3 (BAM)
04-01-2019,05:00,1.05522,R,ugm-3,17.88873,R,ugm-3,19.50671,R,ugm-3,27.000,R,ugm-3 (BAM)
04-01-2019,06:00,1.05522,R,ugm-3,19.58959,R,ugm-3,21.20756,R,ugm-3,23.000,R,ugm-3 (BAM)
04-01-2019,07:00,3.37669,R,ugm-3,28.83962,R,ugm-3,34.01715,R,ugm-3,24.000,R,ugm-3 (BAM)
04-01-2019,08:00,8.01964,R,ugm-3,35.59315,R,ugm-3,47.88976,R,ugm-3,28.000,R,ugm-3 (BAM)
04-01-2019,09:00,12.17016,R,ugm-3,35.87308,R,ugm-3,54.53374,R,ugm-3,30.000,R,ugm-3 (BAM)
04-01-2019,10:00,9.07486,R,ugm-3,31.84910,R,ugm-3,45.76369,R,ugm-3,25.000,R,ugm-3 (BAM)
04-01-2019,11:00,10.86873,R,ugm-3,30.48049,R,ugm-3,47.14564,R,ugm-3,28.000,R,ugm-3 (BAM)
04-01-2019,12:00,11.92394,R,ugm-3,29.02197,R,ugm-3,47.30509,R,ugm-3,27.000,R,ugm-3 (BAM)
04-01-2019,13:00,9.07486,R,ugm-3,33.54996,R,ugm-3,47.46455,R,ugm-3,26.000,R,ugm-3 (BAM)
04-01-2019,14:00,22.79267,R,ugm-3,45.41723,R,ugm-3,80.36551,R,ugm-3,22.000,R,ugm-3 (BAM)
04-01-2019,15:00,37.17879,R,ugm-3,51.47613,R,ugm-3,108.48280,R,ugm-3,22.000,R,ugm-3 (BAM)
04-01-2019,16:00,9.11003,R,ugm-3,37.21665,R,ugm-3,51.18517,R,ugm-3,22.000,R,ugm-3 (BAM)
04-01-2019,17:00,1.75869,R,ugm-3,14.68401,R,ugm-3,17.38064,R,ugm-3,22.000,R,ugm-3 (BAM)
04-01-2019,18:00,2.00491,R,ugm-3,13.03084,R,ugm-3,16.10499,R,ugm-3,16.000,R,ugm-3 (BAM)
04-01-2019,19:00,1.30143,R,ugm-3,12.62124,R,ugm-3,14.61674,R,ugm-3,14.000,R,ugm-3 (BAM)
04-01-2019,20:00,1.33661,R,ugm-3,14.21501,R,ugm-3,16.26445,R,ugm-3,14.000,R,ugm-3 (BAM)
04-01-2019,21:00,1.58283,R,ugm-3,12.56184,R,ugm-3,14.98881,R,ugm-3,10.000,R,ugm-3 (BAM)
04-01-2019,22:00,1.12556,R,ugm-3,6.77845,R,ugm-3,8.50429,R,ugm-3,7.000,R,ugm-3 (BAM)
04-01-2019,23:00,0.98487,R,ugm-3,6.56896,R,ugm-3,8.07907,R,ugm-3,9.000,R,ugm-3 (BAM)
04-01-2019,24:00,1.09039,R,ugm-3,7.89541,R,ugm-3,9.56732,R,ugm-3,10.000,R,ugm-3 (BAM)
05-01-2019,01:00,0.75130,R,ugm-3,6.36595,R,ugm-3,7.51793,R,ugm-3,9.000,R,ugm-3 (BAM)
05-01-2019,02:00,0.70435,R,ugm-3,7.92735,R,ugm-3,9.00733,R,ugm-3,8.000,R,ugm-3 (BAM)
05-01-2019,03:00,0.59869,R,ugm-3,6.58222,R,ugm-3,7.50020,R,ugm-3,10.000,R,ugm-3 (BAM)
05-01-2019,04:00,0.70435,R,ugm-3,6.84576,R,ugm-3,7.92574,R,ugm-3,9.000,R,ugm-3 (BAM)
05-01-2019,05:00,0.66913,R,ugm-3,5.46355,R,ugm-3,6.48953,R,ugm-3,15.000,R,ugm-3 (BAM)
05-01-2019,06:00,0.73956,R,ugm-3,6.15345,R,ugm-3,7.28743,R,ugm-3,13.000,R,ugm-3 (BAM)
05-01-2019,07:00,0.73956,R,ugm-3,7.00453,R,ugm-3,8.13851,R,ugm-3,14.000,R,ugm-3 (BAM)
05-01-2019,08:00,1.19739,R,ugm-3,8.43026,R,ugm-3,10.26623,R,ugm-3,12.000,R,ugm-3 (BAM)
05-01-2019,09:00,2.39478,R,ugm-3,13.98811,R,ugm-3,17.66004,R,ugm-3,18.000,R,ugm-3 (BAM)
05-01-2019,10:00,2.85260,R,ugm-3,14.82871,R,ugm-3,19.20264,R,ugm-3,17.000,R,ugm-3 (BAM)
05-01-2019,11:00,4.15564,R,ugm-3,12.83075,R,ugm-3,19.20264,R,ugm-3,17.000,R,ugm-3 (BAM)
05-01-2019,12:00,8.09997,R,ugm-3,18.53848,R,ugm-3,30.95827,R,ugm-3,17.000,R,ugm-3 (BAM)
05-01-2019,13:00,12.81909,R,ugm-3,24.28168,R,ugm-3,43.93734,R,ugm-3,17.000,R,ugm-3 (BAM)
05-01-2019,14:00,10.52997,R,ugm-3,26.99372,R,ugm-3,43.13944,R,ugm-3,18.000,R,ugm-3 (BAM)
05-01-2019,15:00,9.26214,R,ugm-3,37.39536,R,ugm-3,51.59711,R,ugm-3,18.000,R,ugm-3 (BAM)
05-01-2019,16:00,31.02642,R,ugm-3,55.40828,R,ugm-3,102.98145,R,ugm-3,21.000,R,ugm-3 (BAM)
05-01-2019,17:00,23.98296,R,ugm-3,57.11210,R,ugm-3,93.88547,R,ugm-3,24.000,R,ugm-3 (BAM)
05-01-2019,18:00,39.65465,R,ugm-3,70.26436,R,ugm-3,131.06731,R,ugm-3,29.000,R,ugm-3 (BAM)
05-01-2019,19:00,11.37518,R,ugm-3,49.68774,R,ugm-3,67.12944,R,ugm-3,26.000,R,ugm-3 (BAM)
05-01-2019,20:00,2.42999,R,ugm-3,29.83879,R,ugm-3,33.56472,R,ugm-3,29.000,R,ugm-3 (BAM)
05-01-2019,21:00,4.54303,R,ugm-3,33.67350,R,ugm-3,40.63938,R,ugm-3,29.000,R,ugm-3 (BAM)
05-01-2019,22:00,2.88782,R,ugm-3,28.81764,R,ugm-3,33.24556,R,ugm-3,24.000,R,ugm-3 (BAM)
05-01-2019,23:00,1.83130,R,ugm-3,23.46934,R,ugm-3,26.27729,R,ugm-3,21.000,R,ugm-3 (BAM)
05-01-2019,24:00,0.88043,R,ugm-3,10.45885,R,ugm-3,11.80882,R,ugm-3,12.000,R,ugm-3 (BAM)
06-01-2019,01:00,0.98730,R,ugm-3,9.20395,R,ugm-3,10.71778,R,ugm-3,8.000,R,ugm-3 (BAM)
06-01-2019,02:00,0.81100,R,ugm-3,6.58189,R,ugm-3,7.82540,R,ugm-3,7.000,R,ugm-3 (BAM)
06-01-2019,03:00,1.90408,R,ugm-3,11.61334,R,ugm-3,14.53289,R,ugm-3,9.000,R,ugm-3 (BAM)
06-01-2019,04:00,1.12834,R,ugm-3,17.91325,R,ugm-3,19.64335,R,ugm-3,9.000,R,ugm-3 (BAM)
06-01-2019,05:00,0.63469,R,ugm-3,5.46813,R,ugm-3,6.44132,R,ugm-3,6.000,R,ugm-3 (BAM)
06-01-2019,06:00,0.45839,R,ugm-3,4.83348,R,ugm-3,5.53634,R,ugm-3,9.000,R,ugm-3 (BAM)
06-01-2019,07:00,0.66995,R,ugm-3,7.70313,R,ugm-3,8.73038,R,ugm-3,9.000,R,ugm-3 (BAM)
06-01-2019,08:00,1.58673,R,ugm-3,12.52580,R,ugm-3,14.95876,R,ugm-3,11.000,R,ugm-3 (BAM)
06-01-2019,09:00,1.26939,R,ugm-3,12.74623,R,ugm-3,14.69259,R,ugm-3,9.000,R,ugm-3 (BAM)
06-01-2019,10:00,1.26939,R,ugm-3,19.02784,R,ugm-3,20.97420,R,ugm-3,8.000,R,ugm-3 (BAM)
06-01-2019,11:00,2.22142,R,ugm-3,15.17254,R,ugm-3,18.57867,R,ugm-3,6.000,R,ugm-3 (BAM)
06-01-2019,12:00,1.44569,R,ugm-3,8.27041,R,ugm-3,10.48710,R,ugm-3,8.000,R,ugm-3 (BAM)
06-01-2019,13:00,2.53877,R,ugm-3,13.14216,R,ugm-3,17.03488,R,ugm-3,11.000,R,ugm-3 (BAM)
06-01-2019,14:00,1.93934,R,ugm-3,11.02694,R,ugm-3,14.00054,R,ugm-3,10.000,R,ugm-3 (BAM)
06-01-2019,15:00,3.91394,R,ugm-3,23.22419,R,ugm-3,29.22547,R,ugm-3,27.000,R,ugm-3 (BAM)
06-01-2019,16:00,7.22844,R,ugm-3,44.43962,R,ugm-3,55.52307,R,ugm-3,14.000,R,ugm-3 (BAM)
06-01-2019,17:00,6.62901,R,ugm-3,39.13036,R,ugm-3,49.29469,R,ugm-3,19.000,R,ugm-3 (BAM)
06-01-2019,18:00,1.79830,R,ugm-3,27.74574,R,ugm-3,30.50309,R,ugm-3,15.000,R,ugm-3 (BAM)
06-01-2019,19:00,6.31166,R,ugm-3,39.13784,R,ugm-3,48.81559,R,ugm-3,27.000,R,ugm-3 (BAM)
06-01-2019,20:00,6.52322,R,ugm-3,39.82490,R,ugm-3,49.82703,R,ugm-3,30.000,R,ugm-3 (BAM)
06-01-2019,21:00,3.84341,R,ugm-3,29.88010,R,ugm-3,35.77326,R,ugm-3,24.000,R,ugm-3 (BAM)
06-01-2019,22:00,1.90408,R,ugm-3,19.70491,R,ugm-3,22.62445,R,ugm-3,7.000,R,ugm-3 (BAM)
06-01-2019,23:00,1.02256,R,ugm-3,12.69881,R,ugm-3,14.26672,R,ugm-3,5.000,R,ugm-3 (BAM)
06-01-2019,24:00,0.56417,R,ugm-3,7.97180,R,ugm-3,8.83685,R,ugm-3,5.000,R,ugm-3 (BAM)
07-01-2019,01:00,0.61194,R,ugm-3,6.02299,R,ugm-3,6.96128,R,ugm-3,4.000,R,ugm-3 (BAM)
07-01-2019,02:00,0.37658,R,ugm-3,4.67907,R,ugm-3,5.25648,R,ugm-3,3.000,R,ugm-3 (BAM)
07-01-2019,03:00,0.42365,R,ugm-3,3.23950,R,ugm-3,3.88908,R,ugm-3,2.000,R,ugm-3 (BAM)
07-01-2019,04:00,0.07061,R,ugm-3,2.55549,R,ugm-3,2.66376,R,ugm-3,7.000,R,ugm-3 (BAM)
07-01-2019,05:00,0.28243,R,ugm-3,4.20188,R,ugm-3,4.63494,R,ugm-3,7.000,R,ugm-3 (BAM)
07-01-2019,06:00,0.38834,R,ugm-3,5.10499,R,ugm-3,5.70044,R,ugm-3,6.000,R,ugm-3 (BAM)
07-01-2019,07:00,0.49426,R,ugm-3,5.90154,R,ugm-3,6.65939,R,ugm-3,12.000,R,ugm-3 (BAM)
07-01-2019,08:00,1.76520,R,ugm-3,11.51785,R,ugm-3,14.22446,R,ugm-3,11.000,R,ugm-3 (BAM)
07-01-2019,09:00,1.27095,R,ugm-3,11.68967,R,ugm-3,13.63843,R,ugm-3,6.000,R,ugm-3 (BAM)
07-01-2019,10:00,1.23564,R,ugm-3,7.58835,R,ugm-3,9.48297,R,ugm-3,5.000,R,ugm-3 (BAM)
07-01-2019,11:00,1.20034,R,ugm-3,5.61802,R,ugm-3,7.45852,R,ugm-3,8.000,R,ugm-3 (BAM)
07-01-2019,12:00,1.16503,R,ugm-3,6.52456,R,ugm-3,8.31092,R,ugm-3,5.000,R,ugm-3 (BAM)
07-01-2019,13:00,0.95321,R,ugm-3,5.89040,R,ugm-3,7.35197,R,ugm-3,1.000,R,ugm-3 (BAM)
07-01-2019,14:00,1.05912,R,ugm-3,8.60486,R,ugm-3,10.22882,R,ugm-3,2.000,R,ugm-3 (BAM)
07-01-2019,15:00,1.20034,R,ugm-3,7.32283,R,ugm-3,9.16332,R,ugm-3,5.000,R,ugm-3 (BAM)
07-01-2019,16:00,0.81199,R,ugm-3,4.18902,R,ugm-3,5.43406,R,ugm-3,8.000,R,ugm-3 (BAM)
07-01-2019,17:00,1.02382,R,ugm-3,4.61008,R,ugm-3,6.17992,R,ugm-3,8.000,R,ugm-3 (BAM)
07-01-2019,18:00,1.34156,R,ugm-3,5.45477,R,ugm-3,7.51179,R,ugm-3,8.000,R,ugm-3 (BAM)
07-01-2019,19:00,1.37686,R,ugm-3,4.06876,R,ugm-3,6.17992,R,ugm-3,6.000,R,ugm-3 (BAM)
07-01-2019,20:00,1.12973,R,ugm-3,3.06253,R,ugm-3,4.79476,R,ugm-3,7.000,R,ugm-3 (BAM)
07-01-2019,21:00,1.30625,R,ugm-3,3.69755,R,ugm-3,5.70044,R,ugm-3,6.000,R,ugm-3 (BAM)
07-01-2019,22:00,0.74139,R,ugm-3,2.21956,R,ugm-3,3.35633,R,ugm-3,6.000,R,ugm-3 (BAM)
07-01-2019,23:00,0.74139,R,ugm-3,2.16628,R,ugm-3,3.30306,R,ugm-3,6.000,R,ugm-3 (BAM)
07-01-2019,24:00,0.42365,R,ugm-3,2.01417,R,ugm-3,2.66376,R,ugm-3,7.000,R,ugm-3 (BAM)
08-01-2019,01:00,0.47130,R,ugm-3,2.12088,R,ugm-3,2.84353,R,ugm-3,6.000,R,ugm-3 (BAM)
08-01-2019,02:00,0.45952,R,ugm-3,1.58802,R,ugm-3,2.29260,R,ugm-3,6.000,R,ugm-3 (BAM)
08-01-2019,03:00,0.53021,R,ugm-3,0.89314,R,ugm-3,1.70612,R,ugm-3,5.000,R,ugm-3 (BAM)
08-01-2019,04:00,0.56556,R,ugm-3,1.37210,R,ugm-3,2.23928,R,ugm-3,4.000,R,ugm-3 (BAM)
08-01-2019,05:00,0.63625,R,ugm-3,1.37034,R,ugm-3,2.34592,R,ugm-3,5.000,R,ugm-3 (BAM)
08-01-2019,06:00,0.67160,R,ugm-3,1.74267,R,ugm-3,2.77244,R,ugm-3,8.000,R,ugm-3 (BAM)
08-01-2019,07:00,0.81299,R,ugm-3,3.39194,R,ugm-3,4.63851,R,ugm-3,10.000,R,ugm-3 (BAM)
08-01-2019,08:00,3.46405,R,ugm-3,13.72242,R,ugm-3,19.03389,R,ugm-3,10.000,R,ugm-3 (BAM)
08-01-2019,09:00,3.74683,R,ugm-3,16.80770,R,ugm-3,22.55277,R,ugm-3,10.000,R,ugm-3 (BAM)
08-01-2019,10:00,3.57009,R,ugm-3,12.22692,R,ugm-3,17.70099,R,ugm-3,10.000,R,ugm-3 (BAM)
08-01-2019,11:00,3.21662,R,ugm-3,12.98217,R,ugm-3,17.91425,R,ugm-3,8.000,R,ugm-3 (BAM)
08-01-2019,12:00,6.00907,R,ugm-3,13.60557,R,ugm-3,22.81935,R,ugm-3,7.000,R,ugm-3 (BAM)
08-01-2019,13:00,5.90303,R,ugm-3,13.50158,R,ugm-3,22.55277,R,ugm-3,7.000,R,ugm-3 (BAM)
08-01-2019,14:00,6.22116,R,ugm-3,12.05410,R,ugm-3,21.59307,R,ugm-3,6.000,R,ugm-3 (BAM)
08-01-2019,15:00,19.19368,R,ugm-3,25.69909,R,ugm-3,55.12898,R,ugm-3,7.000,R,ugm-3 (BAM)
08-01-2019,16:00,,,,,,,,,,8.000,R,ugm-3 (BAM)
08-01-2019,17:00,3.53475,R,ugm-3,39.15250,R,ugm-3,44.57237,R,ugm-3,13.000,R,ugm-3 (BAM)
08-01-2019,18:00,3.11058,R,ugm-3,24.60776,R,ugm-3,29.37724,R,ugm-3,10.000,R,ugm-3 (BAM)
08-01-2019,19:00,1.90876,R,ugm-3,22.61175,R,ugm-3,25.53848,R,ugm-3,11.000,R,ugm-3 (BAM)
08-01-2019,20:00,2.65106,R,ugm-3,24.93913,R,ugm-3,29.00403,R,ugm-3,17.000,R,ugm-3 (BAM)
08-01-2019,21:00,5.47886,R,ugm-3,27.00118,R,ugm-3,35.40198,R,ugm-3,6.000,R,ugm-3 (BAM)
08-01-2019,22:00,2.12085,R,ugm-3,11.03683,R,ugm-3,14.28875,R,ugm-3,6.000,R,ugm-3 (BAM)
08-01-2019,23:00,1.02508,R,ugm-3,10.58434,R,ugm-3,12.15610,R,ugm-3,4.000,R,ugm-3 (BAM)
08-01-2019,24:00,1.27251,R,ugm-3,4.76669,R,ugm-3,6.71785,R,ugm-3,7.000,R,ugm-3 (BAM)
09-01-2019,01:00,0.65989,R,ugm-3,3.90736,R,ugm-3,4.91918,R,ugm-3,6.000,R,ugm-3 (BAM)
09-01-2019,02:00,0.75417,R,ugm-3,2.40826,R,ugm-3,3.56463,R,ugm-3,3.000,R,ugm-3 (BAM)
09-01-2019,03:00,0.77773,R,ugm-3,2.65729,R,ugm-3,3.84980,R,ugm-3,7.000,R,ugm-3 (BAM)
09-01-2019,04:00,0.45957,R,ugm-3,2.39656,R,ugm-3,3.10122,R,ugm-3,4.000,R,ugm-3 (BAM)
09-01-2019,05:00,0.84844,R,ugm-3,1.90725,R,ugm-3,3.20816,R,ugm-3,4.000,R,ugm-3 (BAM)
09-01-2019,06:00,0.91914,R,ugm-3,5.59516,R,ugm-3,7.00449,R,ugm-3,7.000,R,ugm-3 (BAM)
09-01-2019,07:00,1.44941,R,ugm-3,6.92087,R,ugm-3,9.14327,R,ugm-3,5.000,R,ugm-3 (BAM)
09-01-2019,08:00,5.01991,R,ugm-3,19.62577,R,ugm-3,27.32286,R,ugm-3,4.000,R,ugm-3 (BAM)
09-01-2019,09:00,8.55506,R,ugm-3,31.58284,R,ugm-3,44.70041,R,ugm-3,7.000,R,ugm-3 (BAM)
09-01-2019,10:00,6.32791,R,ugm-3,31.52223,R,ugm-3,41.22490,R,ugm-3,9.000,R,ugm-3 (BAM)
09-01-2019,11:00,9.58025,R,ugm-3,33.32600,R,ugm-3,48.01551,R,ugm-3,6.000,R,ugm-3 (BAM)
09-01-2019,12:00,6.04510,R,ugm-3,27.99914,R,ugm-3,37.26817,R,ugm-3,5.000,R,ugm-3 (BAM)
09-01-2019,13:00,5.65624,R,ugm-3,26.34968,R,ugm-3,35.02245,R,ugm-3,5.000,R,ugm-3 (BAM)
09-01-2019,14:00,5.93905,R,ugm-3,22.11971,R,ugm-3,31.22612,R,ugm-3,4.000,R,ugm-3 (BAM)
09-01-2019,15:00,7.38846,R,ugm-3,23.90752,R,ugm-3,35.23633,R,ugm-3,5.000,R,ugm-3 (BAM)
09-01-2019,16:00,5.19667,R,ugm-3,33.84495,R,ugm-3,41.81306,R,ugm-3,12.000,R,ugm-3 (BAM)
09-01-2019,17:00,9.04998,R,ugm-3,35.47581,R,ugm-3,49.35225,R,ugm-3,8.000,R,ugm-3 (BAM)
09-01-2019,18:00,2.75742,R,ugm-3,30.09937,R,ugm-3,34.32735,R,ugm-3,8.000,R,ugm-3 (BAM)
09-01-2019,19:00,3.14628,R,ugm-3,30.89332,R,ugm-3,35.71755,R,ugm-3,14.000,R,ugm-3 (BAM)
09-01-2019,20:00,9.36814,R,ugm-3,33.81164,R,ugm-3,48.17592,R,ugm-3,13.000,R,ugm-3 (BAM)
09-01-2019,21:00,3.57050,R,ugm-3,24.30776,R,ugm-3,29.78245,R,ugm-3,10.000,R,ugm-3 (BAM)
09-01-2019,22:00,1.41406,R,ugm-3,13.97956,R,ugm-3,16.14776,R,ugm-3,9.000,R,ugm-3 (BAM)
09-01-2019,23:00,3.32304,R,ugm-3,21.69291,R,ugm-3,26.78816,R,ugm-3,11.000,R,ugm-3 (BAM)
09-01-2019,24:00,4.24218,R,ugm-3,39.85338,R,ugm-3,46.35796,R,ugm-3,16.000,R,ugm-3 (BAM)
10-01-2019,01:00,1.17852,R,ugm-3,25.14724,R,ugm-3,26.95427,R,ugm-3,14.000,R,ugm-3 (BAM)
10-01-2019,02:00,0.70711,R,ugm-3,18.14840,R,ugm-3,19.23262,R,ugm-3,10.000,R,ugm-3 (BAM)
10-01-2019,03:00,0.56569,R,ugm-3,10.92959,R,ugm-3,11.79696,R,ugm-3,10.000,R,ugm-3 (BAM)
10-01-2019,04:00,0.56569,R,ugm-3,13.82520,R,ugm-3,14.69258,R,ugm-3,9.000,R,ugm-3 (BAM)
10-01-2019,05:00,0.56569,R,ugm-3,11.25132,R,ugm-3,12.11870,R,ugm-3,8.000,R,ugm-3 (BAM)
10-01-2019,06:00,0.67175,R,ugm-3,10.98144,R,ugm-3,12.01145,R,ugm-3,8.000,R,ugm-3 (BAM)
10-01-2019,07:00,0.81318,R,ugm-3,14.41093,R,ugm-3,15.65778,R,ugm-3,9.000,R,ugm-3 (BAM)
10-01-2019,08:00,7.10645,R,ugm-3,42.83339,R,ugm-3,53.72979,R,ugm-3,8.000,R,ugm-3 (BAM)
10-01-2019,09:00,21.46077,R,ugm-3,60.50443,R,ugm-3,93.41048,R,ugm-3,7.000,R,ugm-3 (BAM)
10-01-2019,10:00,24.64276,R,ugm-3,54.23126,R,ugm-3,92.01629,R,ugm-3,12.000,R,ugm-3 (BAM)
10-01-2019,11:00,17.88986,R,ugm-3,41.95683,R,ugm-3,69.38758,R,ugm-3,12.000,R,ugm-3 (BAM)
10-01-2019,12:00,14.60181,R,ugm-3,42.49416,R,ugm-3,64.88328,R,ugm-3,10.000,R,ugm-3 (BAM)
10-01-2019,13:00,19.90513,R,ugm-3,41.76243,R,ugm-3,72.28319,R,ugm-3,11.000,R,ugm-3 (BAM)
10-01-2019,14:00,61.12959,R,ugm-3,53.99938,R,ugm-3,147.73012,R,ugm-3,16.000,R,ugm-3 (BAM)
10-01-2019,15:00,23.54674,R,ugm-3,43.09601,R,ugm-3,79.20050,R,ugm-3,10.000,R,ugm-3 (BAM)
10-01-2019,16:00,2.40417,R,ugm-3,17.65543,R,ugm-3,21.34177,R,ugm-3,5.000,R,ugm-3 (BAM)
10-01-2019,17:00,2.58095,R,ugm-3,18.34958,R,ugm-3,22.30698,R,ugm-3,7.000,R,ugm-3 (BAM)
10-01-2019,18:00,4.98512,R,ugm-3,30.64275,R,ugm-3,38.28650,R,ugm-3,9.000,R,ugm-3 (BAM)
10-01-2019,19:00,3.14664,R,ugm-3,31.42407,R,ugm-3,36.24884,R,ugm-3,18.000,R,ugm-3 (BAM)
10-01-2019,20:00,1.48493,R,ugm-3,18.68956,R,ugm-3,20.96642,R,ugm-3,19.000,R,ugm-3 (BAM)
10-01-2019,21:00,3.21735,R,ugm-3,21.34185,R,ugm-3,26.27505,R,ugm-3,13.000,R,ugm-3 (BAM)
10-01-2019,22:00,3.50019,R,ugm-3,26.75302,R,ugm-3,32.11991,R,ugm-3,13.000,R,ugm-3 (BAM)
10-01-2019,23:00,9.36920,R,ugm-3,33.84077,R,ugm-3,48.20667,R,ugm-3,9.000,R,ugm-3 (BAM)
10-01-2019,24:00,1.97991,R,ugm-3,23.77546,R,ugm-3,26.81127,R,ugm-3,11.000,R,ugm-3 (BAM)
11-01-2019,01:00,1.83869,R,ugm-3,19.69481,R,ugm-3,22.51410,R,ugm-3,10.000,R,ugm-3 (BAM)
11-01-2019,02:00,0.80148,R,ugm-3,18.99074,R,ugm-3,20.21967,R,ugm-3,12.000,R,ugm-3 (BAM)
11-01-2019,03:00,0.99006,R,ugm-3,20.52996,R,ugm-3,22.04804,R,ugm-3,13.000,R,ugm-3 (BAM)
11-01-2019,04:00,0.53039,R,ugm-3,15.48078,R,ugm-3,16.29404,R,ugm-3,11.000,R,ugm-3 (BAM)
11-01-2019,05:00,0.53039,R,ugm-3,9.18903,R,ugm-3,10.00228,R,ugm-3,7.000,R,ugm-3 (BAM)
11-01-2019,06:00,0.91935,R,ugm-3,14.40041,R,ugm-3,15.81006,R,ugm-3,6.000,R,ugm-3 (BAM)
11-01-2019,07:00,4.87961,R,ugm-3,38.49627,R,ugm-3,45.97823,R,ugm-3,6.000,R,ugm-3 (BAM)
11-01-2019,08:00,39.95619,R,ugm-3,59.03095,R,ugm-3,120.29625,R,ugm-3,15.000,R,ugm-3 (BAM)
11-01-2019,09:00,145.82240,R,ugm-3,82.98406,R,ugm-3,306.57529,R,ugm-3,16.000,R,ugm-3 (BAM)
11-01-2019,10:00,35.28874,R,ugm-3,54.19563,R,ugm-3,108.30427,R,ugm-3,5.000,R,ugm-3 (BAM)
11-01-2019,11:00,10.04209,R,ugm-3,36.65723,R,ugm-3,52.05488,R,ugm-3,7.000,R,ugm-3 (BAM)
11-01-2019,12:00,4.49065,R,ugm-3,25.32608,R,ugm-3,32.21165,R,ugm-3,5.000,R,ugm-3 (BAM)
11-01-2019,13:00,5.41000,R,ugm-3,20.25969,R,ugm-3,28.55490,R,ugm-3,6.000,R,ugm-3 (BAM)
11-01-2019,14:00,6.29398,R,ugm-3,23.58275,R,ugm-3,33.23338,R,ugm-3,14.000,R,ugm-3 (BAM)
11-01-2019,15:00,2.22765,R,ugm-3,13.25479,R,ugm-3,16.67047,R,ugm-3,10.000,R,ugm-3 (BAM)
11-01-2019,16:00,1.59118,R,ugm-3,29.61055,R,ugm-3,32.05032,R,ugm-3,7.000,R,ugm-3 (BAM)
11-01-2019,17:00,2.72268,R,ugm-3,42.87903,R,ugm-3,47.05374,R,ugm-3,7.000,R,ugm-3 (BAM)
11-01-2019,18:00,2.54588,R,ugm-3,34.86865,R,ugm-3,38.77228,R,ugm-3,10.000,R,ugm-3 (BAM)
11-01-2019,19:00,2.33372,R,ugm-3,22.93310,R,ugm-3,26.51142,R,ugm-3,9.000,R,ugm-3 (BAM)
11-01-2019,20:00,1.34366,R,ugm-3,18.75095,R,ugm-3,20.81120,R,ugm-3,10.000,R,ugm-3 (BAM)
11-01-2019,21:00,0.99006,R,ugm-3,15.95903,R,ugm-3,17.47710,R,ugm-3,7.000,R,ugm-3 (BAM)
11-01-2019,22:00,1.16686,R,ugm-3,12.46140,R,ugm-3,14.25056,R,ugm-3,5.000,R,ugm-3 (BAM)
11-01-2019,23:00,1.06078,R,ugm-3,8.37577,R,ugm-3,10.00228,R,ugm-3,6.000,R,ugm-3 (BAM)
11-01-2019,24:00,0.38895,R,ugm-3,9.02946,R,ugm-3,9.62585,R,ugm-3,5.000,R,ugm-3 (BAM)
12-01-2019,01:00,0.66012,R,ugm-3,4.59644,R,ugm-3,5.60860,R,ugm-3,4.000,R,ugm-3 (BAM)
12-01-2019,02:00,0.49509,R,ugm-3,2.09911,R,ugm-3,2.85823,R,ugm-3,2.000,R,ugm-3 (BAM)
12-01-2019,03:00,0.28291,R,ugm-3,2.64016,R,ugm-3,3.07395,R,ugm-3,0.000,R,ugm-3 (BAM)
12-01-2019,04:00,0.28291,R,ugm-3,2.53230,R,ugm-3,2.96609,R,ugm-3,2.000,R,ugm-3 (BAM)
12-01-2019,05:00,0.17682,R,ugm-3,1.61639,R,ugm-3,1.88751,R,ugm-3,2.000,R,ugm-3 (BAM)
12-01-2019,06:00,0.28291,R,ugm-3,1.34587,R,ugm-3,1.77965,R,ugm-3,5.000,R,ugm-3 (BAM)
12-01-2019,07:00,0.24754,R,ugm-3,3.07188,R,ugm-3,3.45145,R,ugm-3,7.000,R,ugm-3 (BAM)
12-01-2019,08:00,1.66208,R,ugm-3,5.37905,R,ugm-3,7.92754,R,ugm-3,5.000,R,ugm-3 (BAM)